Location: Contre
(49.7477°N, 2.0963°E)
Time: 21:26:42
(UTC+00:00)

CUBEBUG 2 - Visible Passes

Search period start: 27 May 2024 00:00
Search period end: 06 June 2024 00:00
Orbit: 570 x 668 km, 97.8° (Epoch: 27 May)

Date Brightness Start Highest point End Pass type
(mag) Time Alt. Az. Time Alt. Az. Time Alt. Az.
27 May ? 02:00:31 10° NNE 02:05:02 70° ESE 02:08:52 15° S visible
28 May ? 00:43:07 10° ENE 00:45:26 14° E 00:47:45 10° ESE visible
28 May ? 02:17:32 10° NNE 02:22:05 82° WNW 02:26:08 13° SSW visible
29 May ? 00:59:20 10° NE 01:02:39 19° E 01:05:57 10° SE visible
29 May ? 02:34:36 10° N 02:39:04 57° WNW 02:43:23 11° SSW visible
30 May ? 01:15:54 10° NE 01:19:48 27° E 01:23:28 11° SSE visible
30 May ? 02:51:45 10° N 02:56:00 40° WNW 03:00:17 10° SW visible
31 May ? 01:32:38 10° NNE 01:36:55 39° E 01:40:41 13° SSE visible
01 Jun ? 01:49:28 10° NNE 01:53:59 56° E 01:57:54 14° S visible
02 Jun ? 00:33:02 10° ENE 00:34:10 11° E 00:35:18 10° E visible
02 Jun ? 02:06:23 10° NNE 02:10:59 80° ESE 02:15:05 13° S visible
03 Jun ? 00:48:35 10° NE 00:51:22 16° E 00:54:08 10° SE visible
03 Jun ? 02:23:22 10° N 02:27:57 72° WNW 02:32:16 11° SSW visible
04 Jun ? 01:04:56 10° NE 01:08:31 22° E 01:12:05 10° SE visible
04 Jun ? 02:40:25 10° N 02:44:52 50° WNW 02:49:18 10° SW visible
05 Jun ? 01:21:31 10° NNE 01:25:36 31° E 01:29:27 11° SSE visible
05 Jun ? 02:57:31 10° N 03:01:43 36° WNW 03:05:55 10° SW visible
